TimeHST,TemperatureF,Dew PointF,Humidity,Sea Level PressureIn,VisibilityMPH,Wind Direction,Wind SpeedMPH,Gust SpeedMPH,PrecipitationIn,Events,Conditions,WindDirDegrees,DateUTC
12:32 AM,75.2,69.8,83,30.15,10.0,NE,15.0,-,N/A,,Overcast,50,2013-05-15 10:32:00
12:53 AM,75.0,68.0,79,30.14,10.0,ENE,15.0,-,N/A,,Scattered Clouds,60,2013-05-15 10:53:00
1:53 AM,75.0,68.0,79,30.12,10.0,ENE,11.5,-,N/A,,Scattered Clouds,60,2013-05-15 11:53:00
2:53 AM,73.9,66.9,79,30.12,10.0,ENE,12.7,-,N/A,,Partly Cloudy,70,2013-05-15 12:53:00
3:22 AM,73.4,69.8,88,30.12,10.0,ENE,11.5,-,0.03,Rain,Light Rain,60,2013-05-15 13:22:00
3:32 AM,73.4,69.8,88,30.12,10.0,ENE,16.1,-,0.03,,Mostly Cloudy,70,2013-05-15 13:32:00
3:53 AM,73.9,69.1,85,30.11,10.0,ENE,12.7,-,0.03,,Mostly Cloudy,60,2013-05-15 13:53:00
4:53 AM,73.9,69.1,85,30.11,10.0,ENE,12.7,-,N/A,,Scattered Clouds,60,2013-05-15 14:53:00
5:44 AM,73.4,69.8,88,30.13,10.0,NE,13.8,-,N/A,,Mostly Cloudy,50,2013-05-15 15:44:00
5:53 AM,73.9,68.0,82,30.12,10.0,NE,12.7,-,N/A,,Mostly Cloudy,50,2013-05-15 15:53:00
6:13 AM,73.4,69.8,88,30.13,10.0,NNE,13.8,-,N/A,,Partly Cloudy,30,2013-05-15 16:13:00
6:49 AM,73.4,69.8,88,30.14,10.0,NE,17.3,-,N/A,,Mostly Cloudy,50,2013-05-15 16:49:00
6:53 AM,73.9,69.1,85,30.14,10.0,NE,16.1,-,N/A,,Mostly Cloudy,50,2013-05-15 16:53:00
7:16 AM,75.2,69.8,83,30.15,10.0,NE,16.1,-,N/A,,Mostly Cloudy,40,2013-05-15 17:16:00
7:53 AM,73.9,70.0,87,30.15,7.0,NE,19.6,24.2,0.02,Rain,Light Rain,40,2013-05-15 17:53:00
8:25 AM,75.2,69.8,83,30.16,10.0,North,-9999.0,-,0.00,,Mostly Cloudy,0,2013-05-15 18:25:00
8:53 AM,77.0,70.0,79,30.16,10.0,North,-9999.0,-,0.00,,Scattered Clouds,0,2013-05-15 18:53:00
9:04 AM,75.2,69.8,83,30.17,10.0,NE,12.7,-,N/A,,Mostly Cloudy,50,2013-05-15 19:04:00
9:53 AM,78.1,71.1,79,30.17,10.0,ENE,12.7,-,0.01,,Scattered Clouds,60,2013-05-15 19:53:00
10:53 AM,80.1,70.0,71,30.16,10.0,NE,15.0,-,N/A,,Scattered Clouds,50,2013-05-15 20:53:00
11:53 AM,79.0,69.1,72,30.15,10.0,NE,12.7,-,N/A,,Scattered Clouds,50,2013-05-15 21:53:00
12:53 PM,81.0,70.0,69,30.14,10.0,ENE,13.8,-,N/A,,Partly Cloudy,60,2013-05-15 22:53:00
1:53 PM,81.0,69.1,67,30.13,10.0,NE,12.7,-,N/A,,Scattered Clouds,50,2013-05-15 23:53:00
2:53 PM,81.0,69.1,67,30.12,10.0,NE,15.0,-,N/A,,Scattered Clouds,50,2013-05-16 00:53:00
3:53 PM,80.1,69.1,69,30.12,10.0,NE,12.7,-,N/A,,Scattered Clouds,50,2013-05-16 01:53:00
4:53 PM,79.0,69.1,72,30.12,10.0,NE,11.5,-,N/A,,Clear,50,2013-05-16 02:53:00
5:53 PM,75.9,69.1,79,30.12,10.0,NE,11.5,-,0.00,,Clear,50,2013-05-16 03:53:00
6:53 PM,75.9,66.9,74,30.14,10.0,NE,15.0,-,N/A,,Scattered Clouds,50,2013-05-16 04:53:00
7:41 PM,75.2,68.0,78,30.15,10.0,ENE,13.8,-,N/A,,Mostly Cloudy,60,2013-05-16 05:41:00
7:53 PM,75.0,68.0,79,30.15,10.0,NE,13.8,-,N/A,,Mostly Cloudy,50,2013-05-16 05:53:00
8:16 PM,75.2,68.0,78,30.16,10.0,NE,13.8,-,N/A,,Scattered Clouds,50,2013-05-16 06:16:00
8:53 PM,75.0,68.0,79,30.17,10.0,NE,13.8,-,N/A,,Scattered Clouds,50,2013-05-16 06:53:00
9:53 PM,75.0,68.0,79,30.18,10.0,NE,13.8,-,N/A,,Mostly Cloudy,50,2013-05-16 07:53:00
10:09 PM,75.2,68.0,78,30.19,10.0,ENE,13.8,-,N/A,,Mostly Cloudy,60,2013-05-16 08:09:00
10:39 PM,75.2,68.0,78,30.19,10.0,ENE,12.7,-,N/A,,Mostly Cloudy,60,2013-05-16 08:39:00
10:53 PM,75.0,68.0,79,30.18,10.0,ENE,15.0,-,N/A,,Scattered Clouds,60,2013-05-16 08:53:00
11:53 PM,75.0,68.0,79,30.16,10.0,NE,12.7,-,N/A,,Scattered Clouds,50,2013-05-16 09:53:00